Regional Weather Roundup
Issued by NWS

Home | Current Version | Previous Version | Text Only | Print | Product List | Glossary Off
Versions: 1 2 3 4 5 6 7 8 9 10 11 12 13 14 15 16 17 18 19 20 21 22 23 24 25 26 27 28 29 30 31 32 33 34 35 36 37 38 39 40 41 42 43 44 45 46 47 48 49 50

000
ASUS45 KPSR 211010
RWRAZ

ARIZONA REGIONAL HOURLY WEATHER ROUNDUP
NATIONAL WEATHER SERVICE PHOENIX AZ
300 AM MST SUN SEP 21 2014

NOTE: FAIR INDICATES FEW OR NO CLOUDS BELOW 12,000 FEET WITH NO
SIGNIFICANT WEATHER AND/OR OBSTRUCTIONS TO VISIBILITY.

AZZ001>003-036-211100-
NORTHWEST ARIZONA

CITY           SKY/WX    TMP DP  RH WIND       PRES   REMARKS
BULLHEAD CITY  CLEAR     84  59  42 CALM      29.81S
KINGMAN        CLOUDY    76  55  48 SW9       30.00S
$$

AZZ004>008-015-016-018-211100-
NORTH CENTRAL ARIZONA

CITY           SKY/WX    TMP DP  RH WIND       PRES   REMARKS
GRAND CANYON   MOCLDY    55  52  89 CALM      30.23F
PRESCOTT       CLEAR     68  56  65 SE7       30.13S
FLAGSTAFF      MOCLDY    54  52  93 CALM      30.26S
PAYSON         CLEAR     63  57  82 CALM      30.17R
PAGE           LGT RAIN  71  56  58 S7        30.12R
$$

AZZ009>014-017-211100-
NORTHEAST ARIZONA

CITY           SKY/WX    TMP DP  RH WIND       PRES   REMARKS
WINSLOW        PTCLDY    65  57  75 SE5       30.14S
SAINT JOHNS    PTCLDY    61  51  70 CALM      30.18S
SHOW LOW       PTCLDY    59  48  67 S8        30.25S
$$

AZZ023-211100-
GREATER PHOENIX AREA

CITY           SKY/WX    TMP DP  RH WIND       PRES   REMARKS
PHOENIX        PTCLDY    83  67  58 E6        29.87R
BUCKEYE          N/A     75  54  46 N7        29.88R
LUKE AFB       CLEAR     80  63  55 CALM      29.87R
DEER VALLEY    CLEAR     80  67  64 CALM      29.89S
SCOTTSDALE     CLEAR     82  68  62 CALM      29.91R
MESA-GATEWAY   PTCLDY   N/A N/A N/A SE6       29.92R
$$

AZZ027-028-211100-
SOUTHWEST MARICOPA COUNTY AND PINAL COUNTY

CITY           SKY/WX    TMP DP  RH WIND       PRES   REMARKS
CASA GRANDE    CLEAR     73  57  56 CALM      29.91S
$$

AZZ503-504-507>509-211100-
SOUTHEAST ARIZONA

CITY           SKY/WX    TMP DP  RH WIND       PRES   REMARKS
TUCSON         CLEAR     74  65  73 S6        30.00F
DAVIS-MONTHAN  CLEAR     73  66  80 SE6       29.99S
NOGALES        PTCLDY    66  63  90 NE3       30.08S
SIERRA VISTA   PTCLDY    68  62  81 SW7       30.13S
DOUGLAS        PTCLDY    66  63  90 E5        30.09S
SAFFORD        CLEAR     70  65  84 N3        30.01R
$$

AZZ020-021-025-026-031-211100-
SOUTHWEST ARIZONA

CITY           SKY/WX    TMP DP  RH WIND       PRES   REMARKS
YUMA           CLEAR     82  57  42 NW3       29.79F
$$

CAZ031-033-041-043-047-048-061-211100-
SOUTHERN CALIFORNIA

CITY           SKY/WX    TMP DP  RH WIND       PRES   REMARKS
DOWNTOWN L.A.  CLEAR     66  62  87 CALM      29.94S
L.A. AIRPORT   PTCLDY    66  62  86 W3        29.94F
SAN DIEGO      MOCLDY    71  61  70 CALM      29.95F
BURBANK        CLEAR     65  58  78 E6        29.94F
ONTARIO        CLEAR     65  58  78 SW3       29.95F
RIVERSIDE      CLEAR     64  59  83 W3        29.95F
PALM SPRINGS   CLEAR     78  55  44 SE5       29.82S
EL CENTRO NAS  CLEAR     80  47  31 SW8       29.78S
IMPERIAL       CLEAR     78  48  34 W7        29.77F
BLYTHE         CLEAR     83  64  52 S9        29.80S
NEEDLES        CLEAR     87  52  29 S7        29.82R
$$

NVZ020-UTZ003-211100-
SOUTHERN NEVADA-UTAH

CITY           SKY/WX    TMP DP  RH WIND       PRES   REMARKS
LAS VEGAS      MOCLDY    77  58  51 CALM      29.90S
SALT LAKE CITY MOCLDY    66  51  58 NE5       30.06F
$$

NMZ009-TXZ055-211100-
NEW MEXICO-WEST TEXAS

CITY           SKY/WX    TMP DP  RH WIND       PRES   REMARKS
ALBUQUERQUE    PTCLDY    68  57  68 E12       30.24R
EL PASO        PTCLDY    73  65  75 NE5       30.09F
$$


........................KEY........................
SKY/WX - SKY CONDITION/WEATHER
TMP    - TEMPERATURE IN FAHRENHEIT
DP     - DEW POINT IN FAHRENHEIT
RH     - RELATIVE HUMIDITY IN PERCENT
WIND   - DIRECTION AND SPEED IN MILES PER HOUR (MPH)
VRB    - VARIABLE WIND DIRECTION
PRES   - MEAN SEA LEVEL PRESSURE IN INCHES OF MERCURY
         F - FALLING PRESSURE   R - RISING PRESSURE
         S - STEADY PRESSURE
VSB    - VISIBILITY IN MILES
HX     - HEAT INDEX IN FAHRENHEIT
WCI    - WIND CHILL INDEX IN FAHRENHEIT
TC     - TEMPERATURE IN CELSIUS WHICH IS ALSO KNOWN AS
         TEMPERATURE IN CENTIGRADE
AFB    - AIR FORCE BASE
         LUKE AFB IS LUKE AIR FORCE BASE
         DAVIS-MONTHAN IS DAVIS-MONTHAN AIR FORCE BASE
NAS    - NAVAL AIR STATION
         EL CENTRO NAS IS EL CENTRO NAVAL AIR STATION
N/A    - NOT AVAILABLE



USA.gov is the U.S. government's official web portal to all federal, state and local government web resources and services.